EHI
3 8 14 12 7 5 2 0 1 1 0 0 1 4 10 15 14 10 15 38 57 50 39 36 29 16 5 2 2 4 5 4 1 0 0 0 0 0 0 0 0 0 0 0 0 0 0 0 0
4 10 14 10 4 2 1 0 2 2 1 1 3 7 14 19 18 14 23 45 53 40 31 31 27 16 6 2 3 5 5 4 2 0 0 0 0 0 0 0 0 0 0 0 0 0 0 0 0
4 7 8 5 2 1 0 0 1 2 2 3 7 12 17 21 21 21 31 45 41 28 24 27 23 15 7 4 4 5 5 3 1 0 0 0 0 0 0 0 0 0 0 0 0 0 0 0 0
4 3 1 1 1 0 0 0 1 2 3 6 11 19 24 23 21 23 29 36 32 23 20 22 20 15 8 4 4 4 3 1 0 0 0 0 0 0 0 0 0 0 0 0 0 0 0 0 0
4 2 0 0 0 0 0 0 1 3 6 9 15 26 33 27 19 17 19 26 29 25 17 17 20 17 9 4 2 1 1 0 0 0 0 0 0 0 0 0 0 0 0 0 0 0 0 0 0
2 1 0 0 0 0 0 0 1 4 8 9 15 29 37 31 19 11 10 17 26 28 21 16 18 16 10 4 1 0 0 0 0 0 0 0 0 0 0 0 0 0 0 0 0 0 0 0 0
0 0 0 0 0 0 0 0 1 3 5 6 12 27 40 38 25 12 8 13 25 33 25 14 10 11 8 4 1 0 0 0 0 0 0 0 0 0 0 0 0 0 0 0 0 0 0 0 0
0 0 0 0 0 0 0 0 1 1 2 4 12 29 45 45 31 19 15 19 32 38 27 10 4 4 4 2 0 0 0 0 0 0 0 0 0 0 0 0 0 0 0 0 0 0 0 0 0
0 0 0 0 0 0 0 0 0 0 1 7 21 38 50 47 36 27 24 30 42 45 33 17 9 4 1 0 0 0 0 0 0 0 0 0 0 0 0 1 1 0 0 0 0 0 0 0 0
0 0 0 0 0 0 0 0 0 0 3 14 36 53 55 49 40 31 29 37 47 48 41 33 22 12 7 5 4 1 1 1 0 0 0 0 0 0 1 2 2 1 0 0 0 0 0 0 0
0 0 0 0 0 0 0 0 0 2 9 25 47 62 59 50 40 31 30 38 48 52 51 47 40 32 25 19 10 4 2 2 2 2 2 1 2 2 3 4 2 1 1 0 0 0 1 1 1
0 0 0 0 0 0 0 0 0 4 15 30 46 57 57 48 38 34 36 45 56 64 64 62 62 60 54 41 23 11 7 5 5 6 5 5 6 6 7 5 3 2 2 1 1 2 3 3 3
0 0 0 0 0 0 0 0 1 6 15 24 34 47 52 48 40 40 49 59 68 73 75 78 81 78 72 59 40 26 18 12 9 8 8 7 7 7 6 4 4 5 5 5 5 5 4 4 4
0 0 0 0 0 0 0 0 1 8 15 19 26 39 48 50 49 50 58 67 73 74 76 82 84 79 71 59 48 35 24 17 10 7 6 5 6 5 4 3 4 7 8 8 7 6 4 3 2
0 0 0 0 0 0 0 1 4 12 19 21 25 34 45 52 55 57 62 68 72 75 76 75 73 70 62 51 41 30 21 14 9 5 4 4 5 4 3 3 4 6 6 5 4 4 4 3 2
0 0 0 0 0 0 0 2 10 18 21 21 23 31 44 52 54 56 62 66 69 71 71 66 61 60 56 47 36 26 20 15 9 5 4 4 4 3 2 2 3 3 3 1 1 3 4 3 3
0 0 0 0 0 0 0 4 13 20 19 17 21 30 42 50 50 51 56 59 60 61 61 58 56 54 48 40 32 25 22 16 8 4 3 3 2 2 1 1 2 1 1 1 2 4 4 3 3
0 0 0 0 0 0 0 4 12 17 16 17 23 30 39 44 45 46 48 49 50 51 52 53 52 48 40 31 25 20 16 11 6 4 3 2 1 1 0 0 0 0 1 2 3 3 2 1 1
0 0 0 0 0 0 0 4 11 14 15 19 26 31 37 40 42 45 45 44 44 46 46 45 44 39 33 26 20 14 9 6 3 2 2 1 0 0 0 0 0 1 1 2 2 1 0 0 0
0 0 0 0 0 0 0 4 11 13 14 19 24 30 36 40 42 44 44 42 41 40 39 38 36 32 28 23 17 11 7 4 1 1 2 1 0 0 0 0 0 1 1 1 0 0 0 0 0
0 0 0 0 0 0 0 4 11 14 13 14 19 27 35 39 42 43 39 36 33 32 31 31 31 30 27 21 14 9 6 3 2 2 2 1 1 0 0 0 0 0 0 0 0 0 0 0 0
0 0 0 0 0 0 0 2 9 13 12 10 14 24 33 37 38 40 36 29 25 22 21 24 29 32 29 22 12 7 4 2 2 3 4 3 2 1 0 0 0 0 0 0 0 0 0 0 0
0 0 0 0 0 0 0 1 4 8 9 9 12 21 30 33 33 34 33 27 21 16 15 20 28 32 29 21 13 7 4 3 2 4 5 4 2 1 0 0 0 0 0 0 0 0 0 0 0
0 0 0 1 2 1 0 0 1 2 5 8 10 17 26 28 28 30 30 26 20 16 15 19 26 28 25 18 13 8 5 3 3 5 5 3 2 1 0 0 0 0 0 0 0 0 0 0 0
0 0 0 1 3 1 0 0 0 1 3 6 9 15 22 24 26 29 30 26 22 19 19 22 26 26 21 15 12 8 5 4 4 4 3 1 1 2 3 2 1 0 0 0 0 0 0 0 0
0 0 0 1 1 1 0 0 0 1 2 3 7 13 18 22 24 28 29 26 23 22 22 24 27 26 20 13 10 8 6 3 2 2 1 0 1 4 8 6 2 1 0 0 0 0 0 0 0
0 0 0 0 0 0 0 1 0 1 1 1 3 8 14 19 22 26 29 26 24 25 27 30 31 30 22 15 11 9 7 5 2 1 0 0 1 4 8 7 3 1 0 0 0 0 0 0 0
0 0 0 0 0 0 0 0 0 2 3 1 1 4 10 15 19 25 30 30 27 27 31 35 36 33 25 19 14 11 10 9 5 3 3 3 3 5 7 6 3 2 0 0 0 0 0 1 1
0 0 0 0 0 0 0 0 0 2 3 1 1 2 6 10 16 23 30 33 30 27 29 32 35 33 27 21 17 15 14 14 13 12 11 12 11 10 9 7 3 1 0 1 1 1 1 2 2
0 0 0 0 0 0 0 0 0 1 1 1 2 2 4 7 14 21 29 33 29 24 25 28 31 32 27 22 19 17 17 19 20 20 20 19 18 17 13 9 4 0 1 2 2 2 1 2 3
Wind_Speed
11 12 11 9 7 6 7 5 5 7 8 10 7 5 8 9 9 9 10 17 23 21 18 17 16 15 14 14 14 14 13 13 13 12 11 11 11 11 11 11 11 11 11 11 11 11 11 10 9
11 15 12 9 8 8 4 2 7 7 8 7 5 5 8 12 12 12 13 18 23 21 18 16 17 16 15 14 14 14 13 13 12 12 11 11 10 10 11 11 11 11 10 10 10 10 10 10 9
14 18 10 9 11 9 4 6 7 5 5 4 4 6 8 8 9 10 15 20 21 19 17 18 18 16 15 14 14 14 13 12 12 11 10 10 10 10 10 10 10 10 10 10 10 10 9 9 8
10 10 9 10 11 6 6 7 5 3 4 5 4 6 9 7 7 13 17 19 20 19 18 18 18 17 15 14 14 13 13 12 11 10 10 9 9 9 9 9 9 9 9 9 9 8 8 8 7
11 9 11 13 12 4 5 7 4 3 4 5 5 8 10 8 10 14 16 19 19 19 18 17 17 16 15 14 13 13 12 11 11 10 9 9 8 8 8 8 8 7 8 8 8 7 7 7 6
9 10 11 11 5 4 5 5 4 4 5 4 5 8 9 8 11 13 16 17 18 19 19 16 16 16 15 14 13 12 12 11 10 9 8 8 8 7 7 7 7 6 6 6 6 6 6 5 5
11 12 14 12 5 4 6 5 4 4 4 4 4 6 9 10 11 12 14 14 17 19 19 15 15 14 14 14 13 12 11 10 9 9 8 7 7 7 7 7 6 6 5 5 4 4 4 4 3
10 10 15 9 5 6 6 4 4 4 5 4 4 5 10 12 12 12 12 12 14 17 17 15 15 13 12 12 12 12 11 10 10 9 8 7 7 7 8 7 6 5 5 4 3 3 3 2 0
11 9 10 7 7 6 6 4 3 2 1 3 6 8 13 14 14 13 11 11 12 14 14 15 15 13 12 12 12 12 11 10 9 8 8 7 5 6 7 7 9 7 5 4 4 3 4 4 5
8 8 7 8 7 7 6 4 3 2 2 4 11 13 14 13 13 14 13 12 12 12 12 10 13 12 11 10 10 7 8 8 6 5 5 4 2 2 4 8 9 7 7 6 6 5 5 6 4
8 7 7 7 6 7 7 5 3 4 1 4 10 14 14 14 13 13 13 12 12 12 10 11 11 9 8 7 7 4 4 5 4 4 2 1 0 1 2 3 4 5 6 4 5 5 4 2 0
8 8 8 7 6 6 6 6 4 2 5 7 9 13 13 14 13 12 12 11 10 10 10 9 9 7 6 6 5 4 4 3 4 3 2 1 1 1 2 1 1 1 1 2 2 2 1 1 1
10 9 8 7 6 4 5 6 5 3 8 7 9 11 13 13 12 10 9 9 9 9 7 8 9 8 6 5 3 5 4 4 5 4 3 2 1 3 3 1 1 1 1 1 1 1 1 0 1
10 10 9 8 7 5 4 6 3 3 7 7 8 10 11 12 12 10 9 9 9 9 8 8 9 9 7 4 3 3 4 3 5 4 4 3 3 3 2 1 0 1 1 2 1 1 1 1 0
11 11 9 8 8 6 3 4 2 3 6 6 7 8 8 9 10 10 10 9 10 9 9 9 9 9 7 6 5 3 3 5 5 5 4 4 4 3 1 0 1 1 1 1 1 1 1 2 2
14 12 10 9 9 5 4 4 4 5 6 6 7 7 7 7 8 8 9 9 10 10 10 10 10 10 7 4 3 3 3 4 4 4 4 4 4 2 2 1 3 2 1 1 1 0 0 1 1
12 11 10 5 5 5 5 4 6 8 5 5 6 6 7 7 7 7 8 9 8 9 10 8 9 10 8 6 4 5 4 3 4 4 4 3 3 2 2 3 3 3 1 1 2 3 2 1 1
11 11 9 7 3 5 6 4 6 9 8 7 7 7 7 8 7 7 9 9 8 8 9 9 10 8 8 5 4 4 4 3 4 5 4 3 3 3 3 2 2 3 2 3 3 2 1 1 1
12 13 12 10 5 6 7 4 4 7 6 7 7 7 8 8 8 8 9 10 10 10 10 10 10 8 6 5 5 4 4 3 4 5 5 3 3 3 3 3 2 2 3 3 2 2 1 2 0
13 14 12 9 7 7 7 2 3 5 7 7 8 9 9 9 10 10 10 10 10 10 10 10 10 10 7 5 3 3 4 3 4 5 4 3 3 2 2 2 1 3 2 2 2 2 2 1 1
13 12 12 12 12 8 7 3 3 6 7 8 8 9 10 11 12 12 11 11 10 11 11 10 10 10 7 7 4 4 3 2 4 5 4 3 3 3 4 2 3 1 1 3 1 2 2 2 1
12 11 13 14 12 8 7 3 4 7 8 8 9 9 10 11 13 13 13 12 12 11 11 10 9 8 7 6 5 6 5 4 5 4 5 4 3 3 4 3 2 2 2 2 0 2 3 2 2
13 13 14 13 9 8 8 5 5 7 8 9 9 10 10 11 12 13 13 12 12 12 11 10 10 8 8 7 6 5 4 3 4 4 7 5 4 3 3 3 2 0 1 3 3 2 3 2 3
12 13 13 7 3 3 11 8 2 3 6 10 10 10 10 11 12 12 12 11 10 10 10 11 11 9 8 7 6 5 4 3 4 5 6 4 4 4 5 4 3 2 1 2 2 1 1 2 3
10 10 8 6 1 4 9 6 3 5 6 9 11 12 12 11 12 12 13 13 11 12 11 11 12 10 9 8 7 6 5 4 4 4 5 5 4 5 6 6 4 3 2 2 2 1 0 0 1
10 11 9 9 9 4 1 3 2 6 7 10 12 13 12 13 13 13 13 13 12 13 13 13 12 11 10 9 7 6 5 4 4 5 4 5 3 4 8 6 6 4 4 4 3 2 3 2 1
10 10 10 10 13 7 2 1 4 5 4 8 12 13 12 12 13 14 14 14 14 13 12 13 12 11 10 10 8 6 6 5 4 5 5 4 3 4 8 7 6 6 5 4 4 3 3 3 3
11 10 8 8 8 8 1 1 2 4 4 6 10 12 12 12 13 14 14 14 14 14 12 12 12 11 10 10 9 9 8 7 6 5 6 5 4 3 7 7 6 6 6 5 4 4 4 4 3
8 9 8 7 7 7 4 1 6 9 7 7 9 11 13 13 14 14 13 14 14 14 13 12 11 11 10 10 9 8 9 9 8 6 6 5 5 5 5 6 6 6 6 6 6 6 5 6 5
9 10 8 7 6 8 6 3 2 2 2 3 7 9 9 10 12 14 14 13 13 14 14 13 12 12 11 10 9 9 8 8 8 8 7 6 6 6 6 6 6 7 7 7 7 8 7 6 6
Wind_Direction
221 235 233 244 242 246 276 298 8 20 57 57 57 54 65 62 75 100 130 131 121 123 127 127 124 122 121 120 120 121 120 118 117 114 112 109 106 102 100 95 92 88 86 83 81 79 74 70 68
245 244 239 247 256 269 277 24 51 44 58 66 62 56 70 67 81 111 128 122 123 127 133 129 128 126 125 124 123 123 122 121 119 117 114 110 107 104 101 99 95 91 88 85 82 79 74 69 66
257 263 261 249 250 271 310 56 64 61 81 80 76 62 64 75 89 113 126 128 127 129 128 128 133 130 128 127 126 125 125 125 123 120 117 113 109 105 103 99 97 94 91 88 83 79 74 68 63
254 245 242 259 276 314 10 43 58 69 99 99 84 84 78 74 98 121 133 134 128 130 129 133 134 132 131 130 128 127 128 127 125 123 120 116 112 109 106 103 99 96 92 89 85 79 73 67 60
245 258 251 265 279 325 32 33 10 27 67 78 89 94 85 85 109 129 141 135 134 135 131 136 136 134 133 133 132 131 130 128 127 126 125 121 117 114 111 108 106 102 97 92 89 83 75 69 59
258 260 269 275 290 16 43 50 10 43 70 88 110 111 98 113 125 143 147 141 138 134 131 135 138 137 137 137 136 135 133 132 132 131 128 126 125 123 120 117 114 109 104 100 97 91 80 70 57
263 281 280 288 338 20 42 39 9 28 59 81 96 103 118 126 134 146 144 139 139 134 133 142 143 141 140 140 140 139 137 137 137 135 134 137 140 141 140 136 131 122 116 114 113 105 92 77 53
263 285 294 304 355 28 44 36 52 30 60 72 80 108 132 136 144 143 143 140 134 133 139 148 150 146 149 145 145 143 143 144 145 146 154 162 166 167 164 160 149 143 139 139 140 141 137 135 192
262 269 289 350 8 7 14 13 39 91 118 104 87 99 132 143 147 149 149 141 135 136 143 153 148 152 155 152 149 152 152 155 158 164 178 188 195 179 176 158 152 160 165 172 179 188 192 205 217
252 273 322 4 356 346 343 342 319 247 184 118 113 120 139 151 156 161 159 152 147 142 144 146 145 154 157 152 149 161 164 159 177 163 181 202 178 165 150 148 161 170 180 186 194 208 218 229 219
275 299 330 339 345 335 318 312 295 294 30 101 135 141 149 156 163 168 164 161 153 147 144 144 148 148 145 137 150 153 150 152 156 129 157 142 84 120 120 146 163 184 195 196 185 208 230 231 266
275 295 305 307 327 309 309 315 313 4 76 99 127 146 156 164 171 175 167 162 150 146 142 142 130 117 118 126 133 140 136 138 122 116 74 72 69 51 72 63 65 219 182 158 159 204 227 326 347
268 275 280 289 287 298 316 301 301 73 107 120 136 154 161 167 170 176 166 148 145 145 140 131 120 111 103 100 131 127 119 125 121 119 77 22 67 60 58 53 26 308 78 139 156 175 163 255 287
298 306 308 302 302 289 286 300 306 93 122 139 153 162 170 170 168 168 160 155 150 147 141 131 124 119 118 115 101 107 121 119 109 92 77 27 61 63 28 341 37 7 57 59 53 128 155 189 188
292 289 284 278 263 262 292 299 266 155 150 156 161 163 166 171 167 163 162 157 149 146 143 138 133 131 135 137 143 134 131 116 101 101 85 45 58 54 1 285 134 45 46 135 175 176 171 182 178
283 274 270 257 252 230 243 276 167 173 169 167 162 160 162 166 167 159 158 151 146 148 149 154 146 139 138 135 128 106 98 103 107 112 100 76 69 31 322 18 56 3 305 180 150 148 121 119 133
280 269 267 250 230 258 258 274 164 163 169 173 167 162 160 160 161 155 154 145 144 148 149 145 134 138 137 130 114 100 89 93 105 96 91 85 71 26 12 59 40 307 312 40 37 70 40 26 44
293 306 316 323 268 271 273 256 171 166 174 170 169 166 167 168 164 159 149 144 143 142 136 136 134 133 133 129 123 116 116 127 111 100 95 91 93 46 354 108 40 330 43 60 62 56 75 332 296
305 307 313 308 294 286 285 263 167 161 172 165 168 172 171 163 159 153 152 153 149 142 144 146 142 143 146 143 147 141 147 154 131 124 120 112 89 81 359 65 110 25 64 47 42 22 245 223 195
291 298 302 299 296 288 291 279 152 159 172 169 169 172 171 163 161 162 161 159 153 149 148 151 150 153 158 151 148 147 144 160 127 109 122 129 124 141 123 43 62 73 98 64 40 40 330 304 114
292 299 309 311 307 301 300 259 174 176 173 161 165 164 166 167 167 167 165 162 158 156 158 162 159 156 160 150 149 140 131 158 133 136 150 147 137 105 59 61 37 3 146 105 25 4 351 352 353
295 308 314 311 310 316 303 274 197 181 177 165 166 163 165 165 163 165 166 168 166 164 160 152 153 157 156 157 163 169 178 178 158 154 145 151 163 156 140 124 74 355 49 98 261 78 349 333 318
299 312 307 315 328 337 310 279 185 177 171 167 164 161 159 161 164 165 167 168 166 163 158 152 157 164 162 173 177 191 187 170 148 143 137 159 169 182 166 147 140 221 63 82 55 59 4 347 357
295 301 296 310 356 314 274 265 162 167 160 155 154 153 153 156 158 160 162 159 160 158 159 161 163 167 170 181 179 198 203 177 153 156 153 180 172 183 183 167 165 203 152 133 117 71 86 30 19
279 287 294 302 279 222 258 269 140 128 120 135 144 146 149 153 154 159 162 163 166 167 169 168 166 171 177 184 185 193 199 190 177 183 175 199 187 181 177 175 169 197 166 163 162 188 39 148 36
269 275 289 306 304 284 185 320 77 96 104 125 134 138 149 156 158 163 166 165 168 173 173 171 171 175 180 185 188 192 192 201 197 206 210 201 228 182 159 163 170 195 192 194 178 224 198 181 211
268 276 292 287 289 300 89 61 9 8 117 130 134 142 152 157 158 164 166 168 171 174 176 175 173 177 183 187 186 193 198 217 215 194 212 211 202 174 154 167 176 190 201 212 185 227 238 171 201
257 280 296 298 307 311 49 93 162 251 237 164 146 150 153 157 159 161 167 172 173 177 176 175 174 178 183 187 189 195 200 210 216 216 209 212 199 198 155 171 181 191 194 200 215 229 222 215 221
262 260 268 291 298 306 317 136 187 203 211 182 157 151 157 163 162 162 167 171 174 175 175 178 175 179 186 192 195 204 194 202 207 215 218 209 200 190 180 183 191 197 199 197 202 229 234 213 220
264 260 255 256 280 291 303 108 129 191 154 163 144 141 148 160 161 163 165 167 173 176 177 179 182 185 189 193 194 203 201 198 203 208 209 206 204 200 195 196 203 208 207 202 203 217 233 227 223